Location: Rowland
(34.5359°N, 79.2929°W)
Time: 20:09:15
(UTC+00:00)

Transit 2A - Pass Details

Date: 14 October 2022
Orbit: 598 x 959 km, 66.7° (Epoch: 03 December)

Event Time Altitude Azimuth Distance (km) Brightness Sun altitude
Rises 00:57:27 0° 200° (SSW) 2,943 9.2 -28.0°
Enters shadow 00:59:31 - 199° (SSW) 2,110 8.4 -28.4°
Reaches altitude 10° 00:59:47 10° 199° (SSW) 1,999 - -28.5°
Maximum altitude 01:04:13 72° 115° (ESE) 638 - -29.4°
Drops below altitude 10° 01:08:31 10° 31° (NNE) 1,939 - -30.2°
Sets 01:10:45 0° 29° (NNE) 2,846 - -30.7°
